Flag for Canada Weather past 2 weeks in Saint-Jérôme, Quebec, Canada

Now
48 °F

Passing clouds.


Feels Like: 48 °F
Forecast: 43 / 67 °F
Wind: No wind

Location: Montreal / Mirabel

Current Time: Sep 23, 2014 at 10:50:03 PM

Latest Report: Sep 23, 2014 at 10:00 PM


Visibility: 25 mi

Pressure: 30.40 "Hg

Humidity: 100%

Dew point: 48 °F

Location of Saint-JérômeLocation

Historic Weather in Saint-Jérôme — Graph

°F

Saint-Jérôme temperature yesterday

Maximum temperature yesterday: 63 °F (at 12:00 AM)
Minimum temperature yesterday: 43 °F (at 11:00 PM)
Average temperature yesterday: 51 °F

Past Weeks' High & Low Weather Summary

 TemperatureHumidityPressure
High73 °F (Sep 9, 4:00 PM)100% (Sep 9, 4:00 AM)30.46 "Hg (Sep 9, 4:00 AM)
Low30 °F (Sep 19, 7:00 AM)33% (Sep 19, 4:00 PM)29.49 "Hg (Sep 22, 12:00 AM)
Average53 °F78%30.05 "Hg
* Reported Sep 8 9:00 PM — Sep 23 9:00 PM, Saint-Jérôme, Weather by CustomWeather, © 2014

Note: Actual official high and low records may vary slightly from our data, if they occured in-between our weather recording intervals... More about our weather records

Advertising

Saint-Jérôme weather history for previous 24 hours

 ConditionsComfort  
Time TempWeatherWind HumidityBarometerVisibility
9:00 PM
Sep 23
52 °FPassing clouds.2 mph94%30.37 "Hg25 mi
8:00 PM55 °FPassing clouds.3 mph88%30.35 "Hg25 mi
7:00 PM55 °FScattered clouds.5 mph88%30.32 "Hg25 mi
6:00 PM61 °FScattered clouds.6 mph72%30.29 "Hg45 mi
5:00 PM63 °FScattered clouds.7 mph64%30.28 "Hg45 mi
4:00 PM63 °FScattered clouds.9 mph59%30.25 "Hg45 mi
3:00 PM61 °FPartly sunny.9 mph68%30.24 "Hg25 mi
2:00 PM59 °FScattered clouds.12 mph72%30.23 "Hg25 mi
1:00 PM59 °FScattered clouds.10 mph68%30.23 "Hg25 mi
12:00 PM55 °FBroken clouds.10 mph77%30.20 "Hg35 mi
11:00 AM52 °FBroken clouds.9 mph82%30.21 "Hg25 mi
10:52 AM52 °FBroken clouds.8 mph82%30.21 "Hg25 mi
10:00 AM48 °FPartly sunny.7 mph87%30.22 "Hg25 mi
9:54 AM48 °FPartly sunny.7 mph87%30.22 "Hg25 mi
9:00 AM46 °FBroken clouds.6 mph93%30.21 "Hg25 mi
8:00 AM45 °FPartly sunny.3 mph93%30.19 "Hg15 mi
7:00 AM45 °FLight rain. Overcast.5 mph93%30.19 "Hg15 mi
6:00 AM43 °FLight rain. Partly cloudy.5 mph93%30.16 "Hg15 mi
5:00 AM43 °FPassing clouds.5 mph93%30.14 "Hg25 mi
4:00 AM43 °FPartly cloudy.3 mph87%30.13 "Hg25 mi
3:00 AM43 °FPartly cloudy.3 mph87%30.13 "Hg25 mi
2:00 AM43 °FPassing clouds.5 mph87%30.12 "Hg25 mi
1:00 AM43 °FPassing clouds.5 mph87%30.10 "Hg25 mi
12:00 AM45 °FPassing clouds.5 mph81%30.09 "Hg25 mi
11:00 PM
Sep 22
43 °FPassing clouds.5 mph87%30.08 "Hg25 mi
10:00 PM45 °FPassing clouds.5 mph81%30.06 "Hg25 mi
Weather by CustomWeather, © 2014

See weather overviewHow to use our weather pages